Change the Weather History Date:

Friday, June 6, 2014

  Actual Average Record
Temperature  
Mean Temperature 68 °F 63 °F  
Max Temperature 87 °F 82 °F 97 °F (2006)
Min Temperature 48 °F 45 °F 22 °F (1937)
Degree Days  
Heating Degree Days 0 4  
Month to date heating degree days 0 25  
Since 1 June heating degree days 0 25  
Since 1 July heating degree days 6756 6591  
Cooling Degree Days 3 2  
Month to date cooling degree days 10 8  
Year to date cooling degree days 24 15  
Since 1 June cooling degree days 10 8  
Growing Degree Days 16 (Base 50)    
Moisture  
Dew Point 27 °F    
Average Humidity 31    
Maximum Humidity 56    
Minimum Humidity 6    
Precipitation  
Precipitation 0.00 in 0.04 in 0.43 in (1934)
Month to date precipitation T 0.25  
Year to date precipitation 4.49 5.67  
Sea Level Pressure  
Sea Level Pressure 29.78 in    
Wind  
Wind Speed 8 mph (West)    
Max Wind Speed 23 mph    
Max Gust Speed 30 mph    
Visibility 10 miles    
Events      
T = Trace of Precipitation, MM = Missing Value Source: NWS Daily Summary

Daily Weather History Graph

Daily Weather History Graph

Search for Another Location

Airport or City:

Trip Planner

Search our weather history database for the weather conditions in past years. The results will help you decide how hot, cold, wet, or windy it might be!

Date:

Astronomy

Jun. 06, 2014 Rise Set
Actual Time 5:43 AM MDT 8:35 PM MDT
Civil Twilight 5:11 AM MDT 9:07 PM MDT
Nautical Twilight 4:31 AM MDT 9:48 PM MDT
Astronomical Twilight 3:45 AM MDT 10:34 PM MDT
Moon 1:59 PM MDT (6/6) 1:35 AM MDT (6/6)
Length of Visible Light 15h 55m
Length of Day
14h 51m
First Quarter, 59% of the Moon is Illuminated
Jun 6
First Quarter
Jun 12
Full
Jun 19
Last Quarter
Jun 27
New
Jul 5
First Quarter

Hourly Weather History & Observations

Time (MDT) Temp. Dew Point Humidity Pressure Visibility Wind Dir Wind Speed Gust Speed Precip Events Conditions
12:53 AM 57.0 °F 35.1 °F 44% 29.80 in 10.0 mi SSE 9.2 mph - N/A   Clear
1:53 AM 55.9 °F 34.0 °F 44% 29.79 in 10.0 mi ESE 6.9 mph - N/A   Clear
2:53 AM 54.0 °F 33.1 °F 45% 29.79 in 10.0 mi ENE 8.1 mph - N/A   Clear
3:53 AM 52.0 °F 34.0 °F 50% 29.80 in 10.0 mi NE 4.6 mph - N/A   Clear
4:53 AM 50.0 °F 35.1 °F 57% 29.81 in 10.0 mi SW 5.8 mph - N/A   Clear
5:53 AM 48.0 °F 33.1 °F 56% 29.84 in 10.0 mi ESE 5.8 mph - N/A   Clear
6:53 AM 52.0 °F 34.0 °F 50% 29.85 in 10.0 mi North 3.5 mph - N/A   Clear
7:53 AM 57.9 °F 33.1 °F 39% 29.83 in 10.0 mi North 3.5 mph - N/A   Clear
9:53 AM 69.1 °F 33.1 °F 26% 29.81 in - Variable 3.5 mph - N/A   Clear
10:53 AM 73.9 °F 34.0 °F 23% 29.79 in - Variable 4.6 mph - N/A   Clear
11:22 AM 75.9 °F 36.0 °F 23% 29.98 in - Calm Calm - N/A   Partly Cloudy
11:53 AM 77.0 °F 33.1 °F 20% 29.77 in - Variable 3.5 mph - N/A   Clear
12:53 PM 82.0 °F 27.0 °F 13% 29.75 in 10.0 mi West 8.1 mph - N/A   Clear
1:53 PM 84.9 °F 14.0 °F 7% 29.73 in 10.0 mi West 20.7 mph 26.5 mph N/A   Clear
3:53 PM 84.9 °F 25.0 °F 11% 29.70 in 6.0 mi NW 19.6 mph 25.3 mph N/A   Haze
4:53 PM 84.9 °F 19.0 °F 9% 29.70 in 10.0 mi WNW 15.0 mph 23.0 mph N/A   Clear
5:53 PM 84.0 °F 10.9 °F 6% 29.71 in 10.0 mi WSW 11.5 mph - N/A   Clear
6:53 PM 81.0 °F 15.1 °F 8% 29.71 in 10.0 mi SW 10.4 mph - N/A   Clear
7:53 PM 77.0 °F 21.0 °F 12% 29.73 in 10.0 mi West 9.2 mph - N/A   Clear
8:53 PM 73.9 °F 18.0 °F 12% 29.74 in 10.0 mi NNW 8.1 mph - N/A   Clear
9:53 PM 75.0 °F 17.1 °F 11% 29.75 in 10.0 mi West 8.1 mph - N/A   Clear
10:53 PM 64.9 °F 21.0 °F 19% 29.78 in 10.0 mi SSE 6.9 mph - N/A   Clear
11:53 PM 59.0 °F 25.0 °F 27% 29.80 in 10.0 mi SE 8.1 mph - N/A   Clear